7 * 24
多渠道服务支持
IRIDIUM 147 是 IRIDIUM 卫星通信系统中的一颗低轨卫星,属于铱星星座的第二代(Iridium Next)卫星群。该卫星由美国铱星公司运营,主要用于提供全球范围内的语音和数据通信服务。它运行在约 780 公里的近极地轨道上,与其他卫星协同工作,确保地球任何地点的通信覆盖。IRIDIUM 147 于 2017 年发射,具备先进的抗干扰能力和高带宽,广泛应用于航空、航海、应急响应和军事等领域,为用户提供可靠的移动通信解决方案。
美国
(US)
| 数据来源 | 国际轨道数据 |
| 星历时间: | 2025-12-13T07:10:42+0800 10小时前 查看轨道信息 |
| 半长轴: | 7155.805km |
| 偏心率: | 0.0002019 |
| 轨道倾角: | 86.398° |
| 近地点辐角 | 86.238° |
| 升交点赤经 | 166.148° |
| 平近点角 | 273.905° |
| 近地点: | 776.225km |
| 远地点: | 779.115km |
| 周期: | 100.403分钟 |
| 每日圈数: | 14.342177 |